"2009-03-06 00:00:00",685783,16.82,318.5,3.708,1.008,13.63,104.1022,9.78,11.14,16.86,0,110.3,13.31,10.56,280.5
"2009-03-06 00:00:30",685784,15.24,314.9,6.81,1.216,11.68,104.1033,9.78,11,16.81,0,110.3,13.31,10.56,276.9
"2009-03-06 00:01:00",685785,15.57,315.3,6.504,1.201,12.09,104.1048,9.78,11.06,16.59,0,110.3,13.31,10.57,277.3
"2009-03-06 00:01:30",685786,15.01,314.2,6.741,1.352,10.84,104.102,9.77,10.95,16.5,0,110.3,13.3,10.56,276.2
"2009-03-06 00:02:00",685787,15.32,315.6,6.158,1.358,12.03,104.0958,9.76,11.06,16.81,0,110.3,13.31,10.55,277.6
"2009-03-06 00:02:30",685788,15.38,320.4,5.788,1.318,12.49,104.0815,9.72,11.03,16.79,0,110.3,13.31,10.51,282.4
"2009-03-06 00:03:00",685789,15.02,320.1,6.569,1.496,11.93,104.0713,9.7,10.96,16.59,0,110.3,13.31,10.48,282.1
"2009-03-06 00:03:30",685790,14.47,318.7,5.724,1.327,11.73,104.0724,9.7,11.01,16.79,0,110.3,13.31,10.49,280.7
"2009-03-06 00:04:00",685791,14.97,321,6.259,1.371,12.43,104.0754,9.71,11.01,16.86,0,110.3,13.3,10.49,283.0
"2009-03-06 00:04:30",685792,14.21,319.5,6.278,0.751,11.08,104.0692,9.69,10.89,16.69,0,110.3,13.3,10.48,281.5
"2009-03-06 00:05:00",685793,15.66,321.1,6.378,1.351,12.35,104.0668,9.68,10.99,16.98,0,110.3,13.3,10.47,283.1
"2009-03-06 00:05:30",685794,14.43,312.8,6.844,1.396,11.85,104.0618,9.67,10.91,17.05,0,110.3,13.3,10.46,274.8
"2009-03-06 00:06:00",685795,14.4,312.3,6.999,1.335,11.51,104.0557,9.66,10.98,17.06,0,110.3,13.3,10.44,274.3
"2009-03-06 00:06:30",685796,15.43,314.8,8.01,1.287,12.01,104.0527,9.65,10.9,17.05,0,110.3,13.3,10.43,276.8
"2009-03-06 00:07:00",685797,14.29,313.1,5.605,1.145,12.23,104.0539,9.65,10.94,17.2,0,110.3,13.3,10.44,275.1
"2009-03-06 00:07:30",685798,15.59,314.6,5.541,0.889,12.83,104.0522,9.65,10.91,17.22,0,110.3,13.3,10.43,276.6
"2009-03-06 00:08:00",685799,15.05,314.9,4.865,1.432,12.19,104.0401,9.62,10.94,17.18,0,110.3,13.3,10.40,276.9
"2009-03-06 00:08:30",685800,13.99,316.7,8.22,1.293,10.55,104.0241,9.58,10.81,17.17,0,110.3,13.3,10.36,278.7
"2009-03-06 00:09:00",685801,13.93,322.3,6.776,1.062,11.99,104.0232,9.57,10.84,17.25,0,110.3,13.3,10.36,284.3
"2009-03-06 00:09:30",685802,13.4,318.7,7.452,1.158,11.05,104.0251,9.58,10.71,17.3,0,110.3,13.31,10.36,280.7
"2009-03-06 00:10:00",685803,14.27,321.5,5.993,1.375,12.32,104.0157,9.55,10.88,17.64,0,110.3,13.31,10.34,283.5
"2009-03-06 00:10:30",685804,13.73,318.2,6.19,1.246,12.57,104.0045,9.53,10.81,17.75,0,110.3,13.31,10.31,280.2
"2009-03-06 00:11:00",685805,13.67,324.3,4.701,0.914,13.06,103.9966,9.51,10.86,17.91,0,110.3,13.31,10.29,286.3
"2009-03-06 00:11:30",685806,13.31,322.1,6.339,0.99,12.11,103.9932,9.5,10.73,17.78,0,110.3,13.31,10.28,284.1
"2009-03-06 00:12:00",685807,12.03,314.5,6.331,1.711,10.03,103.9929,9.5,10.63,17.76,0,110.4,13.31,10.28,276.5
"2009-03-06 00:12:30",685808,14.92,319.6,5.955,1.287,11.55,103.9882,9.48,10.65,17.73,0,110.3,13.31,10.27,281.6
"2009-03-06 00:13:00",685809,14.52,318.9,5.666,1.113,12.64,103.9772,9.46,10.81,17.9,0,110.3,13.31,10.24,280.9
"2009-03-06 00:13:30",685810,15.13,321.9,3.86,0.876,13.53,103.9602,9.41,10.8,17.87,0,110.3,13.31,10.20,283.9
"2009-03-06 00:14:00",685811,14.74,319.5,5.883,1.346,12.92,103.9594,9.41,10.78,17.97,0,110.3,13.31,10.20,281.5
"2009-03-06 00:14:30",685812,14.26,314.9,5.243,1.292,12.62,103.9594,9.41,10.73,18.01,0,110.3,13.31,10.20,276.9
"2009-03-06 00:15:00",685813,14.31,311.2,6.627,1.335,10.55,103.9543,9.4,10.51,17.8,0,110.3,13.31,10.18,273.2
"2009-03-06 00:15:30",685814,14.72,313,7.846,1.44,10.96,103.9422,9.37,10.71,17.96,0,110.3,13.31,10.15,275.0
"2009-03-06 00:16:00",685815,16.27,317.2,5.647,1.169,11.6,103.9264,9.33,10.64,17.91,0,110.3,13.31,10.11,279.2
"2009-03-06 00:16:30",685816,16.93,321.3,2.85,0.866,13.36,103.9255,9.32,10.71,17.94,0,110.3,13.31,10.11,283.3
"2009-03-06 00:17:00",685817,17.47,322.4,2.982,0.859,13.48,103.9208,9.31,10.68,17.86,0,110.3,13.31,10.10,284.4
"2009-03-06 00:17:30",685818,17.53,324.8,4.138,0.644,13.49,103.91,9.28,10.67,17.85,0,110.3,13.31,10.07,286.8
"2009-03-06 00:18:00",685819,16.72,323.8,3.413,0.841,13.03,103.8982,9.25,10.67,17.74,0,110.3,13.31,10.04,285.8
"2009-03-06 00:18:30",685820,15.94,322.9,5.198,1.049,12.32,103.8917,9.24,10.61,17.64,0,110.3,13.31,10.02,284.9
"2009-03-06 00:19:00",685821,15.08,323.1,4.621,1.067,12.32,103.8917,9.24,10.6,17.61,0,110.3,13.31,10.02,285.1
"2009-03-06 00:19:30",685822,12.42,316.6,6.274,1.278,9.63,103.8886,9.23,10.41,17.2,0,110.3,13.31,10.01,278.6
"2009-03-06 00:20:00",685823,13.28,316.2,7.32,1.465,10.28,103.8824,9.21,10.42,17.2,0,110.3,13.31,10.00,278.2
"2009-03-06 00:20:30",685824,12.14,314.1,6.544,1.486,11.22,103.8771,9.2,10.47,17.15,0,110.3,13.31,9.98,276.1
"2009-03-06 00:21:00",685825,14.92,317.3,6.399,1.294,11.43,103.8737,9.19,10.41,17.18,0,110.3,13.31,9.98,279.3
"2009-03-06 00:21:30",685826,15.27,315,5.755,1.125,12.54,103.867,9.17,10.5,17.68,0,110.3,13.31,9.96,277.0
"2009-03-06 00:22:00",685827,15.28,318.6,5.396,0.976,12.97,103.8661,9.17,10.52,17.9,0,110.3,13.31,9.96,280.6
"2009-03-06 00:22:30",685828,14.92,320.1,4.308,0.993,13.02,103.8616,9.16,10.57,17.89,0,110.2,13.31,9.94,282.1
"2009-03-06 00:23:00",685829,14.84,316.1,5.074,0.683,13.02,103.8599,9.16,10.55,17.58,0,110.2,13.31,9.94,278.1
"2009-03-06 00:23:30",685830,15.8,317.1,3.458,0.968,12.46,103.8611,9.16,10.54,17.47,0,110.2,13.31,9.94,279.1
"2009-03-06 00:24:00",685831,15.74,320.9,4.355,0.983,12.55,103.8625,9.16,10.52,17.8,0,110.3,13.31,9.95,282.9
"2009-03-06 00:24:30",685832,17.19,320.7,4.497,0.691,12.37,103.8643,9.17,10.52,17.95,0,110.3,13.31,9.95,282.7
"2009-03-06 00:25:00",685833,16.31,323.2,4.57,0.609,12.38,103.8649,9.17,10.53,18.23,0,110.2,13.31,9.95,285.2
"2009-03-06 00:25:30",685834,15.97,320.2,4.875,0.645,12.36,103.864,9.17,10.52,18.49,0,110.2,13.31,9.95,282.2
"2009-03-06 00:26:00",685835,17.02,319.3,3.292,0.851,12.42,103.8681,9.18,10.52,18.57,0,110.2,13.32,9.96,281.3
"2009-03-06 00:26:30",685836,16.6,319.6,4.337,0.755,12.48,103.8686,9.18,10.52,18.62,0,110.2,13.32,9.96,281.6
"2009-03-06 00:27:00",685837,16.09,318.6,4.176,0.825,12.41,103.8537,9.14,10.52,18.68,0,110.2,13.32,9.92,280.6
"2009-03-06 00:27:30",685838,15.6,318,3.407,0.953,12.5,103.843,9.11,10.48,18.66,0,110.2,13.32,9.90,280.0
"2009-03-06 00:28:00",685839,14.51,315.3,4.725,0.684,12.93,103.8463,9.12,10.48,18.21,0,110.2,13.32,9.90,277.3
"2009-03-06 00:28:30",685840,14.35,311.7,5.006,0.795,12.61,103.8483,9.13,10.49,17.5,0,110.2,13.32,9.91,273.7
"2009-03-06 00:29:00",685841,14.06,305.4,6.854,1.266,11.51,103.8493,9.13,10.37,17.03,0,110.2,13.32,9.91,267.4
"2009-03-06 00:29:30",685842,12.61,299.1,6.915,1.091,8.42,103.8457,9.12,10.14,16.9,0,110.2,13.32,9.90,261.1
"2009-03-06 00:30:00",685843,12.81,301.3,3.874,1.237,8.81,103.8463,9.12,10.11,16.85,0,110.2,13.32,9.90,263.3
"2009-03-06 00:30:30",685844,14.61,309.9,7.876,1.98,10.48,103.8443,9.12,10.33,17.25,0,110.2,13.33,9.90,271.9
"2009-03-06 00:31:00",685845,17.79,319.7,5.449,0.907,13.19,103.8407,9.11,10.44,18.08,0,110.2,13.33,9.89,281.7
"2009-03-06 00:31:30",685846,18.95,320.1,2.83,0.793,13.63,103.8394,9.1,10.41,18.68,0,110.2,13.33,9.89,282.1
"2009-03-06 00:32:00",685847,17.82,322.1,4.709,0.748,13.41,103.8312,9.08,10.4,18.92,0,110.3,13.33,9.87,284.1
"2009-03-06 00:32:30",685848,18.34,323.4,3.904,0.607,13.26,103.825,9.07,10.39,19.13,0,110.2,13.33,9.85,285.4
"2009-03-06 00:33:00",685849,17.54,323.6,2.818,0.845,13.21,103.825,9.07,10.39,19.16,0,110.2,13.33,9.85,285.6
"2009-03-06 00:33:30",685850,16.92,322.1,4.795,0.793,13.63,103.8152,9.04,10.37,18.65,0,110.2,13.33,9.83,284.1
"2009-03-06 00:34:00",685851,17.15,320.6,4.36,0.807,13.13,103.7934,8.99,10.34,18.59,0,110.2,13.33,9.77,282.6
"2009-03-06 00:34:30",685852,15.54,325.7,4.982,1.024,12.95,103.7915,8.98,10.33,19.12,0,110.2,13.33,9.76,287.7
"2009-03-06 00:35:00",685853,17.2,320.9,4.038,0.815,12.8,103.7805,8.95,10.33,19.26,0,110.2,13.33,9.74,282.9
"2009-03-06 00:35:30",685854,17.09,323,5.403,0.732,12.76,103.772,8.93,10.3,19.25,0,110.2,13.33,9.71,285.0
"2009-03-06 00:36:00",685855,16.67,321.4,3.541,0.708,12.84,103.7582,8.9,10.26,19.34,0,110.2,13.33,9.68,283.4
"2009-03-06 00:36:30",685856,17.16,322.3,3.948,1.017,12.65,103.757,8.89,10.24,19.46,0,110.2,13.32,9.68,284.3
"2009-03-06 00:37:00",685857,17.03,321.4,4.629,0.56,12.88,103.7336,8.83,10.24,19.58,0,110.2,13.32,9.62,283.4
"2009-03-06 00:37:30",685858,17.87,320.7,4.78,0.839,12.94,103.7238,8.81,10.21,19.62,0,110.2,13.32,9.59,282.7
"2009-03-06 00:38:00",685859,17.09,321.4,3.744,0.629,12.89,103.7184,8.79,10.17,19.69,0,110.2,13.32,9.58,283.4
"2009-03-06 00:38:30",685860,17.47,324.8,5.012,0.841,12.79,103.6919,8.73,10.17,19.75,0,110.2,13.32,9.51,286.8
"2009-03-06 00:39:00",685861,17.11,324.9,4.783,0.836,12.84,103.6899,8.72,10.14,19.76,0,110.2,13.32,9.50,286.9
"2009-03-06 00:39:30",685862,16.89,325.5,3.275,0.904,12.56,103.6857,8.71,10.1,19.84,0,110.2,13.32,9.49,287.5
"2009-03-06 00:40:00",685863,16.83,324.3,3.96,0.711,12.84,103.6597,8.64,10.07,19.95,0,110.2,13.32,9.43,286.3
"2009-03-06 00:40:30",685864,16.91,324.4,3.912,0.521,12.74,103.6561,8.63,10.05,19.98,0,110.2,13.32,9.42,286.4
"2009-03-06 00:41:00",685865,16.89,323.9,3.81,0.856,12.5,103.6558,8.63,10.04,20.1,0,110.2,13.32,9.42,285.9
"2009-03-06 00:41:30",685866,16.79,323.7,4.75,0.873,12.72,103.631,8.57,10,20.2,0,110.2,13.33,9.35,285.7
"2009-03-06 00:42:00",685867,17.02,321.3,3.866,0.73,12.85,103.6222,8.55,9.98,20.21,0,110.2,13.33,9.33,283.3
"2009-03-06 00:42:30",685868,17.51,320.3,4.689,0.866,13.12,103.6208,8.54,9.94,20.02,0,110.2,13.33,9.33,282.3
"2009-03-06 00:43:00",685869,16.15,323.6,4.414,0.805,12.65,103.5994,8.49,9.94,19.46,0,110.2,13.33,9.27,285.6
"2009-03-06 00:43:30",685870,16.38,319.6,4.485,0.721,12.49,103.5921,8.47,9.89,20,0,110.2,13.33,9.25,281.6
"2009-03-06 00:44:00",685871,17.16,322.9,3.725,0.693,12.65,103.5936,8.47,9.89,20.23,0,110.1,13.33,9.26,284.9
"2009-03-06 00:44:30",685872,17.57,322,4.31,0.685,12.59,103.5921,8.47,9.85,20.33,0,110.2,13.33,9.25,284.0
"2009-03-06 00:45:00",685873,17.4,322.8,4.155,0.734,12.64,103.5789,8.44,9.85,20.36,0,110.1,13.34,9.22,284.8
"2009-03-06 00:45:30",685874,16.65,324.6,4.333,0.78,12.64,103.5709,8.42,9.83,20.32,0,110.1,13.34,9.20,286.6
"2009-03-06 00:46:00",685875,16.12,320.9,4.208,0.737,12.59,103.5755,8.43,9.79,20.39,0,110.1,13.34,9.21,282.9
"2009-03-06 00:46:30",685876,16.59,322.6,4.649,0.717,12.61,103.5692,8.41,9.78,20.43,0,110.1,13.34,9.19,284.6
"2009-03-06 00:47:00",685877,16.55,318.3,4.177,0.896,12.53,103.5504,8.36,9.77,20.56,0,110.1,13.34,9.15,280.3
"2009-03-06 00:47:30",685878,14.74,323.6,4.608,1.068,12.51,103.5499,8.36,9.72,20.6,0,110.1,13.34,9.14,285.6
"2009-03-06 00:48:00",685879,14.38,323.3,4.448,0.695,12.62,103.5525,8.37,9.7,20.7,0,110.1,13.34,9.15,285.3
"2009-03-06 00:48:30",685880,14.12,321.6,4.778,0.786,12.37,103.5478,8.36,9.69,20.79,0,110.1,13.34,9.14,283.6
"2009-03-06 00:49:00",685881,13.17,325.2,4.821,0.868,12.14,103.53,8.31,9.67,20.88,0,110.1,13.34,9.09,287.2
"2009-03-06 00:49:30",685882,14.2,322,5.525,0.814,12.12,103.5218,8.29,9.65,20.88,0,110.1,13.34,9.07,284.0
"2009-03-06 00:50:00",685883,14.81,324.1,4.135,0.647,12.18,103.5201,8.29,9.64,20.89,0,110.1,13.34,9.07,286.1
"2009-03-06 00:50:30",685884,15.1,322.6,4.872,0.706,11.99,103.51,8.26,9.62,20.97,0,110.1,13.34,9.04,284.6
"2009-03-06 00:51:00",685885,13.62,328.2,4.716,1.038,11.91,103.4928,8.22,9.6,21.12,0,110.1,13.34,9.00,290.2
"2009-03-06 00:51:30",685886,14.4,324.4,5.216,0.612,11.88,103.488,8.2,9.59,21.23,0,110.1,13.34,8.99,286.4
"2009-03-06 00:52:00",685887,15.9,326.1,3.945,0.758,12.14,103.488,8.2,9.56,21.29,0,110.1,13.34,8.99,288.1
"2009-03-06 00:52:30",685888,16.46,325,4.239,0.425,12.25,103.4846,8.2,9.54,21.28,0,110.1,13.34,8.98,287.0
"2009-03-06 00:53:00",685889,16.37,324.9,4.002,0.715,12.15,103.4705,8.16,9.56,21.29,0,110.1,13.34,8.94,286.9
"2009-03-06 00:53:30",685890,16.22,324.1,4.473,0.728,12.29,103.4547,8.12,9.53,21.33,0,110.1,13.34,8.90,286.1
"2009-03-06 00:54:00",685891,15.54,323.1,3.646,0.806,12.41,103.4541,8.12,9.5,21.36,0,110.1,13.34,8.90,285.1
"2009-03-06 00:54:30",685892,16.79,319.4,4.062,0.907,12.47,103.4541,8.12,9.49,21.27,0,110.1,13.34,8.90,281.4
"2009-03-06 00:55:00",685893,15.08,320.6,5.074,0.936,12.31,103.4454,8.1,9.47,21.27,0,110.1,13.34,8.88,282.6
"2009-03-06 00:55:30",685894,14.58,324.4,4.128,0.615,12.35,103.4318,8.06,9.43,21.3,0,110.1,13.34,8.84,286.4
"2009-03-06 00:56:00",685895,15.09,321.9,3.56,0.764,12.43,103.4202,8.03,9.44,21.28,0,110.1,13.34,8.81,283.9
"2009-03-06 00:56:30",685896,15.82,323.3,4.631,0.73,12.46,103.4202,8.03,9.42,21.26,0,110.1,13.34,8.81,285.3
"2009-03-06 00:57:00",685897,15.36,324.8,4.499,0.626,12.51,103.4202,8.03,9.42,21.26,0,110.1,13.34,8.81,286.8
"2009-03-06 00:57:30",685898,15.33,323.6,4.457,0.585,12.4,103.4183,8.03,9.4,21.27,0,110.1,13.34,8.81,285.6
"2009-03-06 00:58:00",685899,15.53,324.6,4.334,0.562,12.46,103.4095,8,9.37,21.35,0,110.1,13.34,8.78,286.6
"2009-03-06 00:58:30",685900,16.19,323.2,4.456,0.643,12.28,103.398,7.975,9.36,21.38,0,110.1,13.35,8.75,285.2
"2009-03-06 00:59:00",685901,15.61,322.3,4.677,0.841,12.29,103.3922,7.96,9.38,21.53,0,110.1,13.35,8.74,284.3
"2009-03-06 00:59:30",685902,14.77,323.7,4.749,0.808,12.35,103.396,7.97,9.35,21.52,0,110.1,13.36,8.75,285.7
"2009-03-06 01:00:00",685903,13.8,322.4,3.917,0.645,12.42,103.3983,7.976,9.34,21.52,0,110.1,13.36,8.76,284.4
"2009-03-06 01:00:30",685904,15.08,320.6,4.061,0.756,12.18,103.4033,7.988,9.32,21.56,0,110.1,13.36,8.77,282.6
"2009-03-06 01:01:00",685905,15.07,321.1,4.146,0.829,12.13,103.4049,7.992,9.33,21.69,0,110.1,13.36,8.77,283.1
"2009-03-06 01:01:30",685906,15.17,321.1,4.264,0.709,12.16,103.395,7.967,9.32,21.7,0,110,13.36,8.75,283.1
"2009-03-06 01:02:00",685907,14.34,323.8,3.692,0.845,12.1,103.3847,7.941,9.3,21.56,0,110,13.36,8.72,285.8
"2009-03-06 01:02:30",685908,15.17,321.7,3.174,0.799,11.99,103.3817,7.933,9.3,21.67,0,110.1,13.36,8.71,283.7
"2009-03-06 01:03:00",685909,15.81,319.5,3.962,0.854,12.17,103.3823,7.935,9.28,21.74,0,110,13.36,8.71,281.5
"2009-03-06 01:03:30",685910,16.57,320.9,4.107,0.797,11.99,103.3849,7.941,9.26,21.9,0,110,13.36,8.72,282.9
"2009-03-06 01:04:00",685911,16.97,320.1,3.698,0.747,12.26,103.3855,7.943,9.25,21.99,0,110,13.36,8.72,282.1
"2009-03-06 01:04:30",685912,16.6,319.9,3.972,0.712,12.12,103.3839,7.939,9.23,22.01,0,110,13.36,8.72,281.9
"2009-03-06 01:05:00",685913,16.11,318.5,3.846,0.71,12.15,103.3762,7.919,9.24,22.05,0,110,13.36,8.70,280.5
"2009-03-06 01:05:30",685914,15.85,319.1,4.04,0.684,12.18,103.3678,7.898,9.23,22.09,0,110.1,13.36,8.68,281.1
"2009-03-06 01:06:00",685915,15.48,321.1,3.335,0.788,12.33,103.3593,7.876,9.22,22.1,0,110.1,13.36,8.66,283.1
"2009-03-06 01:06:30",685916,14.94,321.7,4.161,0.53,12.17,103.3539,7.862,9.2,22.12,0,110.1,13.36,8.64,283.7
"2009-03-06 01:07:00",685917,14.8,322.9,3.914,0.677,12.14,103.3537,7.861,9.21,22.15,0,110.1,13.36,8.64,284.9
"2009-03-06 01:07:30",685918,15.07,321.3,4.261,0.787,12.22,103.3531,7.86,9.19,22.11,0,110,13.36,8.64,283.3
"2009-03-06 01:08:00",685919,15.51,321.9,4.097,0.734,12.29,103.3486,7.848,9.18,22.03,0,110,13.36,8.63,283.9
"2009-03-06 01:08:30",685920,15.45,317.8,4.5,0.652,12.24,103.3398,7.826,9.17,21.96,0,110.1,13.36,8.61,279.8
"2009-03-06 01:09:00",685921,14.82,320,4.051,0.761,12.05,103.3246,7.787,9.17,21.95,0,110,13.36,8.57,282.0
"2009-03-06 01:09:30",685922,15.28,321.5,4.12,0.738,12.06,103.3201,7.776,9.14,22.11,0,110,13.36,8.55,283.5
"2009-03-06 01:10:00",685923,15.34,321.1,3.823,0.869,12.04,103.3198,7.775,9.13,22.18,0,110,13.36,8.55,283.1
"2009-03-06 01:10:30",685924,15.85,321.5,3.962,0.487,12,103.3198,7.775,9.11,22.3,0,110.1,13.36,8.55,283.5
"2009-03-06 01:11:00",685925,16.4,322.2,3.978,0.66,12.03,103.3198,7.775,9.13,22.35,0,110,13.36,8.55,284.2
"2009-03-06 01:11:30",685926,16.8,321.8,4.625,0.587,12.26,103.3195,7.774,9.09,22.29,0,110,13.36,8.55,283.8
"2009-03-06 01:12:00",685927,16.56,321.9,4.044,0.584,12.37,103.3141,7.76,9.09,22.31,0,110,13.36,8.54,283.9
"2009-03-06 01:12:30",685928,16.31,323.1,4.831,0.645,12.27,103.2927,7.706,9.08,22.31,0,110,13.36,8.48,285.1
"2009-03-06 01:13:00",685929,16.42,321,4.505,0.653,12.29,103.2859,7.688,9.08,22.33,0,110,13.36,8.47,283.0
"2009-03-06 01:13:30",685930,16.09,320.4,3.439,0.737,12.14,103.2859,7.688,9.05,22.33,0,110,13.36,8.47,282.4
"2009-03-06 01:14:00",685931,15.82,321.9,3.774,0.754,12.21,103.2859,7.688,9.05,22.35,0,110,13.36,8.47,283.9
"2009-03-06 01:14:30",685932,15.79,319.3,4.03,0.683,12.23,103.2856,7.688,9.04,22.36,0,110,13.36,8.47,281.3
"2009-03-06 01:15:00",685933,15.76,319.4,3.413,0.817,12.07,103.2788,7.67,9.04,22.37,0,110,13.37,8.45,281.4
"2009-03-06 01:15:30",685934,15.33,317.2,4.558,0.588,12.3,103.2605,7.623,9.02,22.32,0,110,13.37,8.40,279.2
"2009-03-06 01:16:00",685935,15.18,319.7,3.949,0.608,12.18,103.2526,7.603,9,22.35,0,110,13.37,8.38,281.7
"2009-03-06 01:16:30",685936,15.64,319.5,4.175,0.687,11.91,103.252,7.602,9,22.47,0,110,13.37,8.38,281.5
"2009-03-06 01:17:00",685937,16.34,319.7,4.174,0.722,12.08,103.2538,7.606,9,22.5,0,110,13.37,8.38,281.7
"2009-03-06 01:17:30",685938,15.84,319.9,4.128,0.824,12.13,103.2549,7.609,8.98,22.51,0,110,13.37,8.39,281.9
"2009-03-06 01:18:00",685939,16.45,320.6,3.737,0.281,12.12,103.253,7.604,8.96,22.57,0,110,13.37,8.38,282.6
"2009-03-06 01:18:30",685940,16.29,320.7,4.354,0.539,12.15,103.2432,7.579,8.97,22.63,0,110,13.37,8.36,282.7
"2009-03-06 01:19:00",685941,16.35,319,4.464,0.733,12.07,103.2311,7.548,8.94,22.67,0,110,13.37,8.33,281.0
"2009-03-06 01:19:30",685942,16.65,320.6,3.604,0.743,12.09,103.231,7.548,8.94,22.68,0,110,13.37,8.33,282.6
"2009-03-06 01:20:00",685943,16.32,319.5,4.126,0.699,12.21,103.2313,7.549,8.92,22.64,0,110,13.37,8.33,281.5
"2009-03-06 01:20:30",685944,16.46,316.9,3.84,0.582,12.17,103.2348,7.558,8.9,22.62,0,110,13.37,8.34,278.9
"2009-03-06 01:21:00",685945,16.91,315.4,4.504,0.679,12.2,103.2368,7.563,8.91,22.63,0,110,13.37,8.34,277.4
"2009-03-06 01:21:30",685946,16.88,316.9,4.583,0.604,12.16,103.2386,7.567,8.88,22.67,0,110,13.37,8.35,278.9
"2009-03-06 01:22:00",685947,16.53,319.5,3.419,0.684,12.09,103.2311,7.548,8.87,22.73,0,110,13.37,8.33,281.5
"2009-03-06 01:22:30",685948,16.69,320.7,4.514,0.581,11.98,103.2178,7.514,8.86,22.81,0,110,13.38,8.29,282.7
"2009-03-06 01:23:00",685949,16.15,322,4.174,0.737,12.17,103.2128,7.502,8.87,22.86,0,110,13.38,8.28,284.0
"2009-03-06 01:23:30",685950,15.82,323.5,3.256,0.754,11.94,103.2169,7.512,8.84,22.87,0,110,13.38,8.29,285.5
"2009-03-06 01:24:00",685951,15.68,326.4,4.076,0.638,12.21,103.2175,7.513,8.83,22.88,0,110,13.38,8.29,288.4
"2009-03-06 01:24:30",685952,15.04,323.9,3.664,0.833,11.82,103.219,7.517,8.83,22.86,0,110,13.38,8.30,285.9
"2009-03-06 01:25:00",685953,15.12,324,3.513,0.688,11.97,103.2144,7.506,8.82,22.91,0,110,13.38,8.28,286.0
"2009-03-06 01:25:30",685954,15.36,324.5,4.284,0.663,12.11,103.1952,7.457,8.81,22.95,0,110,13.38,8.23,286.5
"2009-03-06 01:26:00",685955,15.51,326.4,3.429,0.689,12.03,103.1856,7.432,8.8,22.91,0,110,13.37,8.21,288.4
"2009-03-06 01:26:30",685956,15.22,328.2,4.206,0.674,11.96,103.1854,7.431,8.79,22.74,0,110,13.37,8.21,290.2
"2009-03-06 01:27:00",685957,15.23,326.3,3.97,0.901,11.84,103.1854,7.431,8.78,22.68,0,110,13.37,8.21,288.3
"2009-03-06 01:27:30",685958,15.7,329.1,3.988,0.812,11.9,103.1854,7.431,8.76,22.7,0,110,13.37,8.21,291.1
"2009-03-06 01:28:00",685959,15.97,326.4,4.502,0.583,12.1,103.1854,7.431,8.73,22.78,0,110,13.37,8.21,288.4
"2009-03-06 01:28:30",685960,16.74,324.2,4.174,0.712,11.94,103.1842,7.428,8.73,22.88,0,110,13.37,8.21,286.2
"2009-03-06 01:29:00",685961,17.59,322.4,4.025,0.642,12.09,103.1664,7.383,8.74,22.96,0,110,13.37,8.16,284.4
"2009-03-06 01:29:30",685962,17.47,322.9,2.911,0.782,11.95,103.1517,7.345,8.71,22.97,0,110,13.37,8.12,284.9
"2009-03-06 01:30:00",685963,17.07,323.3,3.527,0.657,12.08,103.1515,7.345,8.7,22.96,0,110,13.37,8.12,285.3
"2009-03-06 01:30:30",685964,16.96,326.3,4.178,0.731,12.07,103.1515,7.345,8.69,23.04,0,110,13.37,8.12,288.3
"2009-03-06 01:31:00",685965,16.34,327.5,3.503,0.791,11.92,103.1515,7.345,8.69,23.08,0,110,13.38,8.12,289.5
"2009-03-06 01:31:30",685966,16.15,323.4,4.95,0.667,12.29,103.1509,7.343,8.66,23.06,0,110,13.38,8.12,285.4
"2009-03-06 01:32:00",685967,15.91,328.4,4.394,0.715,12.26,103.1405,7.317,8.66,23.1,0,110,13.39,8.09,290.4
"2009-03-06 01:32:30",685968,16.21,324.3,4.716,0.466,12.1,103.1317,7.294,8.63,23.1,0,110,13.39,8.07,286.3
"2009-03-06 01:33:00",685969,15.73,323.1,4.53,0.638,12,103.1207,7.266,8.64,23.18,0,110,13.39,8.04,285.1
"2009-03-06 01:33:30",685970,16.24,324.9,4.415,0.551,12.15,103.1176,7.258,8.62,23.21,0,110,13.39,8.04,286.9
"2009-03-06 01:34:00",685971,15.41,328.5,4.198,0.663,11.86,103.1176,7.258,8.61,23.17,0,110,13.39,8.04,290.5
"2009-03-06 01:34:30",685972,15.53,327.3,4.366,0.665,11.95,103.117,7.257,8.59,23.15,0,110,13.39,8.03,289.3
"2009-03-06 01:35:00",685973,16.1,322.5,3.933,0.69,11.92,103.1088,7.236,8.6,23.2,0,110,13.39,8.01,284.5
"2009-03-06 01:35:30",685974,15.99,324.8,4.978,0.851,11.81,103.0905,7.189,8.55,23.3,0,110,13.39,7.97,286.8
"2009-03-06 01:36:00",685975,16.25,326.3,3.59,0.789,11.94,103.0837,7.171,8.55,23.32,0,110,13.39,7.95,288.3
"2009-03-06 01:36:30",685976,16.2,324.4,3.424,0.687,11.72,103.0837,7.171,8.52,23.37,0,110,13.39,7.95,286.4
"2009-03-06 01:37:00",685977,15.83,324.8,4.014,0.631,11.89,103.0837,7.171,8.54,23.44,0,110,13.39,7.95,286.8
"2009-03-06 01:37:30",685978,14.97,330.2,3.333,0.852,11.75,103.0826,7.169,8.51,23.41,0,110,13.39,7.95,292.2
"2009-03-06 01:38:00",685979,14.47,329.7,4.13,0.659,11.82,103.0682,7.132,8.5,23.33,0,110,13.39,7.91,291.7
"2009-03-06 01:38:30",685980,15.06,326.9,4.226,0.679,11.73,103.0586,7.107,8.49,23.37,0,110,13.39,7.88,288.9
"2009-03-06 01:39:00",685981,15.01,327.1,4.23,0.787,11.7,103.0501,7.086,8.48,23.41,0,110,13.39,7.86,289.1
"2009-03-06 01:39:30",685982,14.93,327.8,4.074,0.813,11.61,103.0498,7.085,8.46,23.45,0,110,13.39,7.86,289.8
"2009-03-06 01:40:00",685983,15.25,327.4,3.554,0.865,11.53,103.0498,7.085,8.44,23.5,0,110,13.39,7.86,289.4
"2009-03-06 01:40:30",685984,15.41,325.1,3.561,0.772,11.58,103.0422,7.065,8.41,23.49,0,110,13.39,7.84,287.1
"2009-03-06 01:41:00",685985,15.19,323.5,5.052,0.609,11.7,103.0221,7.014,8.42,23.53,0,110,13.39,7.79,285.5
"2009-03-06 01:41:30",685986,14.9,326.2,4.554,0.601,11.58,103.0162,6.999,8.41,23.58,0,110,13.39,7.78,288.2
"2009-03-06 01:42:00",685987,15.91,323.8,4.961,0.757,11.71,103.0177,7.003,8.39,23.64,0,110,13.39,7.78,285.8
"2009-03-06 01:42:30",685988,15.35,326.6,4.318,0.727,11.57,103.0188,7.006,8.38,23.7,0,110,13.39,7.78,288.6
"2009-03-06 01:43:00",685989,15.47,325.6,3.895,0.746,11.53,103.0174,7.002,8.37,23.71,0,110,13.39,7.78,287.6
"2009-03-06 01:43:30",685990,14.7,328.7,4.384,0.798,11.53,103.011,6.986,8.35,23.74,0,110,13.39,7.76,290.7
"2009-03-06 01:44:00",685991,13.44,333,3.733,0.645,11.61,103.0006,6.959,8.33,23.72,0,110,13.39,7.74,295.0
"2009-03-06 01:44:30",685992,13.67,332.4,4.435,0.627,11.41,102.9908,6.934,8.32,23.64,0,110,13.39,7.71,294.4
"2009-03-06 01:45:00",685993,13.88,337.4,4.403,0.58,11.16,102.9928,6.939,8.32,23.63,0,110,13.39,7.72,299.4
"2009-03-06 01:45:30",685994,14.12,332.4,4.7,0.567,11.17,102.9954,6.946,8.29,23.61,0,110,13.39,7.72,294.4
"2009-03-06 01:46:00",685995,14.07,331.3,3.817,0.736,11.17,102.9946,6.944,8.28,23.63,0,110,13.39,7.72,293.3
"2009-03-06 01:46:30",685996,14.12,329.6,2.702,0.8,11,102.9936,6.941,8.26,23.68,0,110,13.39,7.72,291.6
"2009-03-06 01:47:00",685997,14.51,327.6,4.749,0.877,11.14,102.9826,6.913,8.28,23.67,0,109.9,13.39,7.69,289.6
"2009-03-06 01:47:30",685998,14.95,324.7,4.467,0.697,11.21,102.9716,6.885,8.24,23.67,0,109.9,13.39,7.66,286.7
"2009-03-06 01:48:00",685999,15.48,325,2.85,0.762,11.45,102.9711,6.884,8.24,23.7,0,110,13.4,7.66,287.0
"2009-03-06 01:48:30",686000,15.62,323.8,4.329,0.502,11.49,102.9726,6.888,8.23,23.74,0,110,13.4,7.66,285.8
"2009-03-06 01:49:00",686001,15.17,322.4,4.44,0.566,11.52,102.9717,6.885,8.24,23.78,0,109.9,13.4,7.66,284.4
"2009-03-06 01:49:30",686002,14.98,321,4.462,0.61,11.55,102.9667,6.872,8.19,23.82,0,109.9,13.4,7.65,283.0
"2009-03-06 01:50:00",686003,14.69,322,4.154,0.575,11.56,102.9492,6.828,8.2,23.87,0,109.9,13.4,7.60,284.0
"2009-03-06 01:50:30",686004,14.18,326.1,4.457,0.729,11.43,102.9444,6.816,8.18,23.85,0,109.9,13.4,7.59,288.1